Regional Weather Roundup
Issued by NWS Sterling, VA

Home | Current Version | Previous Version | Text Only | Print | Product List | Glossary On
Versions: 1 2 3 4 5 6 7 8 9 10 11 12 13 14 15 16 17 18 19 20 21 22 23 24 25 26 27 28 29 30 31 32 33 34 35 36 37 38 39 40 41 42 43 44 45 46 47 48 49 50
000
ASUS41 KLWX 280411
RWRLWX

REGIONAL WEATHER ROUNDUP
NATIONAL WEATHER SERVICE BALTIMORE MD/WASHINGTON DC
1100 PM EST MON FEB 27 2017

Note: "FAIR" indicates few or no clouds below 12,000 feet
with no significant weather and/or obstructions to visibility.
 TC=TEMPERATURE CELSIUS

 * =Non NWS site. Station does not report precipitation (e.g. rain,
    snow, etc.), thunder, or fog.

DCZ001-MDZ009-015-VAZ040>042-051-053>054-280500-
WASHINGTON METRO

CITY           SKY/WX    TMP DP  RH WIND       PRES   REMARKS
WASHINGTON NAT CLOUDY    50  35  56 S6        30.38F
DULLES         MOCLDY    50  31  48 S5        30.36F
ANDREWS AFB    CLOUDY    50  30  46 S8        30.36F
FT BELVOIR     CLOUDY    47  33  56 S5        30.37F
QUANTICO       CLOUDY    51  41  68 SW7       30.38F
COLLEGE PARK*  CLOUDY    43  34  70 CALM      30.37F
LEESBURG*      CLOUDY    50  32  50 MISG      30.36F
MANASSAS*      CLOUDY    47  32  56 S3        30.36F
GAITHERSBURG*  CLOUDY    46  28  49 S5        30.40F

$$

MDZ006>007-011-014-280500-
BALTIMORE METRO

CITY           SKY/WX    TMP DP  RH WIND       PRES   REMARKS
BWI AIRPORT    CLOUDY    49  35  58 CALM      30.36F
MD SCIENCE CTR   N/A     51  34  52 MISG      30.37F
MARTIN STATE   CLOUDY    46  39  76 CALM      30.39F
ANNAPOLIS      CLOUDY    50  37  61 S8        30.38F
FORT MEADE*    CLOUDY    43  36  75 CALM      30.39F

$$

MDZ012-015-019>023-280500-
MARYLAND EASTERN SHORE

CITY           SKY/WX    TMP DP  RH WIND       PRES   REMARKS
OCEAN CITY     CLOUDY    47  42  83 CALM      30.43F
SALISBURY      CLOUDY    47  39  74 E3        30.41F
BAY BRIDGE AP* CLOUDY    50  36  57 CALM      30.38F
CAMBRIDGE*     CLOUDY    48  32  53 SE9       30.39F
EASTON*        CLOUDY    51  30  43 S8        30.42F

$$

MDZ017>025-280500-
SOUTHERN MARYLAND

CITY           SKY/WX    TMP DP  RH WIND       PRES   REMARKS
PATUXENT RIVER CLOUDY    50  36  58 S9        30.39F
ST INIGOES     CLOUDY    51  36  56 SE7       30.39F
LEONARDTOWN*   CLOUDY    50  32  50 SE6       30.40F

$$

MDZ003>005-280500-
NORTH CENTRAL MARYLAND

CITY           SKY/WX    TMP DP  RH WIND       PRES   REMARKS
FREDERICK*     CLOUDY    41  34  75 CALM      30.39S
HAGERSTOWN APT CLOUDY    48  28  46 W3        30.33F
WESTMINSTER*   CLOUDY    46  32  57 SE3       30.35F

$$

MDZ501>502-280500-
WESTERN MARYLAND

CITY           SKY/WX    TMP DP  RH WIND       PRES   REMARKS
OAKLAND*       CLOUDY    41  30  65 S9        30.27F
CUMBERLAND*    CLOUDY    43  37  81 CALM      30.36F

$$

VAZ025>031-280500-
SHENANDOAH VALLEY

CITY           SKY/WX    TMP DP  RH WIND       PRES   REMARKS
WINCHESTER*    PTCLDY    45  27  49 S3        30.33F
FRONT ROYAL*   MOCLDY    45  28  53 CALM      30.33S
LURAY*         CLOUDY    45  32  61 CALM      30.33F
NEW MARKET*    CLOUDY    39  29  68 CALM      30.33F
STAUNTON*      CLOUDY    47  27  44 SW6       30.36S
WAYNESBORO*    MOCLDY    49  22  35 S3        30.34F

$$

WVZ021-048>050-054>055-280500-
EASTERN WEST VIRGINIA PANHANDLE

CITY           SKY/WX    TMP DP  RH WIND       PRES   REMARKS
MARTINSBURG    CLOUDY    44  27  51 CALM      30.33F
PETERSBURG*    CLOUDY    50  29  43 S6        30.33S

$$

VAZ036>039-050-280500-
CENTRAL FOOTHILLS

CITY           SKY/WX    TMP DP  RH WIND       PRES   REMARKS
CHARLOTTESVILL CLOUDY    51  25  36 CALM      30.35F
CULPEPER*      CLOUDY    44  35  71 CALM      30.37F
ORANGE*        CLOUDY    50  30  46 CALM      30.37F
GORDONSVILLE*  CLOUDY    46  36  67 CALM      30.35F
WARRENTON*     CLOUDY    46  31  56 CALM      30.36S

$$

VAZ055>057-280500-
NORTH AND CENTRAL PIEDMONT

CITY           SKY/WX    TMP DP  RH WIND       PRES   REMARKS
FREDERICKSBRG* CLOUDY    50  37  59 SE3       30.37S
STAFFORD*      CLOUDY    50  34  54 CALM      30.41F

$$

NCZ024-NYZ072-PAZ021-071-VAZ022-071-280500-
OTHER REGIONAL OBSERVATIONS

CITY           SKY/WX    TMP DP  RH WIND       PRES   REMARKS
NEW YORK CITY  PTCLDY    49  30  48 CALM      30.41F
PHILADELPHIA   CLOUDY    47  31  53 SE5       30.40F
PITTSBURGH     MOCLDY    39  39 100 CALM      30.26F
ROANOKE        CLOUDY    50  30  46 CALM      30.35F
RICHMOND       CLOUDY    50  35  56 SE6       30.38F
RALEIGH        CLOUDY    58  42  55 SE8       30.35F

$$

ANZ530>537-280500-
MARINE OBSERVATIONS

STATION/POSITION TIME  TEMP    WIND        PRES
                       AIR SEA DIR/SP/G
                 (UTC) (F)     (DEG/KT/KT) (MB)
THOMAS PT LIGHT  0400   47 44  180/ 11/ 12   N/A
BALT KEY BRIDGE  0348   51     180/ 11/ 12 1028.3F
COVE POINT       0348   45     180/  8/  9 1029.9F
LEWISETTA        0348   50 49  160/  5/  7 1028.9F
SOLOMONS ISLAND  0348   50 46  150/  8/  9   N/A
PINEY POINT      0348          150/  6/  6   N/A

$$




USA.gov is the U.S. government's official web portal to all federal, state and local government web resources and services.